| time (UTC) | temp F | wind direction | speed knots | gust knots | rain 1hr in | rain 24hr in | rain mn in | humidity % | barometer mb |
| 20260505140138 | 85 | 222 | 1.7 | 3.5 | 0.00 | 0.00 | 0.00 | 26 | 995.7 |
| 20260505140136 | 85 | 222 | 1.7 | 3.5 | 0.00 | 0.00 | 0.00 | 26 | 995.7 |
| 20260505130129 | 85 | 90 | 2.6 | 6.1 | 0.00 | 0.00 | 0.00 | 26 | 995.6 |
| 20260505124630 | 81 | 315 | 3.5 | 7.0 | 0.00 | 0.00 | 0.00 | 36 | 997.0 |
| 20260505123131 | 83 | 45 | 2.6 | 6.1 | 0.00 | 0.00 | 0.00 | 34 | 996.8 |
| 20260505121631 | 84 | 90 | 1.7 | 4.3 | 0.00 | 0.00 | 0.00 | ||
| 20260505120129 | 84 | 90 | 1.7 | 3.5 | 0.00 | 0.00 | 0.00 | 31 | 996.8 |
| 20260505114627 | 84 | 135 | 2.6 | 5.2 | 0.00 | 0.00 | 0.00 | 34 | 996.8 |
| 20260505113126 | 83 | 270 | 1.7 | 6.1 | 0.00 | 0.00 | 0.00 | 37 | 996.9 |
| 20260505111627 | 81 | 180 | 2.6 | 7.0 | 0.00 | 0.00 | 0.00 | 39 | 997.1 |
| 20260505110125 | 83 | 90 | 3.5 | 7.0 | 0.00 | 0.00 | 0.00 | 33 | 996.8 |
| 20260505101622 | 78 | 180 | 2.6 | 7.0 | 0.00 | 0.00 | 0.00 | 39 | 998.2 |
| 20260505100121 | 80 | 90 | 2.6 | 5.2 | 0.00 | 0.00 | 0.00 | 37 | 998.0 |
| 20260505094619 | 77 | 222 | 2.6 | 7.0 | 0.00 | 0.00 | 0.00 | 39 | 998.3 |
| 20260505093115 | 79 | 135 | 0.9 | 3.5 | 0.00 | 0.00 | 0.00 | 38 | 998.2 |
| 20260505091613 | 78 | 270 | 1.7 | 3.5 | 0.00 | 0.00 | 0.00 | 41 | 998.2 |
| 20260505090113 | 0 | 270 | 3.5 | 0.0 | 0.00 | 0.00 | 0.00 | 43 | 999.3 |
| 20260505090111 | 77 | 270 | 3.5 | 7.0 | 0.00 | 0.00 | 0.00 | 43 | 999.3 |
| 20260505084610 | 79 | 90 | 0.9 | 3.5 | 0.00 | 0.00 | 0.00 | 40 | 999.2 |
| 20260505083107 | 75 | 222 | 1.7 | 3.5 | 0.00 | 0.00 | 0.00 | 47 | 999.5 |
| 20260505080108 | 76 | 135 | 0.9 | 2.6 | 0.00 | 0.00 | 0.00 | 45 | 999.4 |
| 20260505074607 | 73 | 180 | 0.9 | 3.5 | 0.00 | 0.00 | 0.00 | 50 | 999.5 |
| 20260505074605 | 0 | 180 | 0.9 | 0.0 | 0.00 | 0.00 | 0.00 | 50 | 999.5 |
| 20260505073105 | 74 | 315 | 2.6 | 6.1 | 0.00 | 0.00 | 0.00 | 51 | 999.5 |
| 20260505071603 | 73 | 135 | 3.5 | 7.0 | 0.00 | 0.00 | 0.00 | 51 | 999.5 |
| 20260505070103 | 72 | 90 | 2.6 | 3.5 | 0.00 | 0.00 | 0.00 | 53 | 999.6 |
| 20260505064601 | 70 | 315 | 3.5 | 7.0 | 0.00 | 0.00 | 0.00 | 57 | 999.8 |
| 20260505063101 | 68 | 0 | 3.5 | 7.0 | 0.00 | 0.00 | 0.00 | 59 | 1000.9 |
| 20260505061559 | 66 | 0 | 3.5 | 7.8 | 0.00 | 0.00 | 0.00 | 62 | 1001.1 |
| 20260505054556 | 59 | 180 | 0.0 | 0.0 | 0.00 | 0.00 | 0.00 | 78 | 1001.5 |
| 20260505053053 | 59 | 180 | 0.0 | 0.0 | 0.00 | 0.00 | 0.00 | 78 | 1001.5 |
| 20260505051553 | 57 | 180 | 0.0 | 0.0 | 0.00 | 0.00 | 0.00 | 82 | 1001.7 |
| 20260505041548 | 56 | 180 | 0.0 | 0.0 | 0.00 | 0.00 | 0.00 | 80 | 1001.7 |
| 20260505040046 | 57 | 180 | 0.0 | 0.0 | 0.00 | 0.00 | 0.00 | 78 | 1001.7 |
| 20260505034546 | 57 | 180 | 0.9 | 1.7 | 0.00 | 0.00 | 0.00 | 77 | 1001.6 |
| 20260505033046 | 57 | 315 | 0.9 | 2.6 | 0.00 | 0.00 | 0.00 | 78 | 1001.7 |
| 20260505031543 | 56 | 315 | 0.0 | 0.0 | 0.00 | 0.00 | 0.00 | 79 | 1001.7 |
| 20260505030043 | 57 | 90 | 0.9 | 3.5 | 0.00 | 0.00 | 0.00 | 76 | 1002.7 |
| 20260505024543 | 57 | 90 | 0.9 | 3.5 | 0.00 | 0.00 | 0.00 | 76 | 1002.6 |
| 20260505023041 | 59 | 180 | 0.0 | 0.0 | 0.00 | 0.00 | 0.00 | 70 | 1001.5 |
| 20260505021539 | 60 | 222 | 2.6 | 7.0 | 0.00 | 0.00 | 0.00 | 69 | 1002.5 |
| 20260505020036 | 59 | 180 | 0.9 | 2.6 | 0.00 | 0.00 | 0.00 | 74 | 1002.6 |
| 20260505014536 | 59 | 222 | 0.0 | 0.0 | 0.00 | 0.00 | 0.00 | 70 | 1002.5 |
| 20260505011535 | 59 | 270 | 0.9 | 3.5 | 0.00 | 0.00 | 0.00 | 70 | 1002.5 |
| 20260505010032 | 59 | 180 | 0.0 | 0.0 | 0.00 | 0.00 | 0.00 | 70 | 1002.6 |
| 20260505004530 | 60 | 180 | 0.0 | 0.9 | 0.00 | 0.00 | 0.00 | 67 | 1002.5 |
| 20260505003027 | 61 | 222 | 0.9 | 4.3 | 0.00 | 0.00 | 0.00 | 64 | 1002.4 |
| 20260505001526 | 61 | 0 | 4.3 | 9.6 | 0.00 | 0.00 | 0.00 | 65 | 1002.4 |
| 20260505000026 | 61 | 315 | 2.6 | 7.0 | 0.00 | 0.00 | 0.00 | 65 | 1002.4 |
| 20260504234525 | 62 | 0 | 2.6 | 7.0 | 0.00 | 0.00 | 0.00 | ||
| 20260504233021 | 62 | 315 | 2.6 | 6.1 | 0.00 | 0.00 | 0.00 | 62 | 1003.4 |
| 20260504231519 | 62 | 45 | 5.2 | 9.6 | 0.00 | 0.00 | 0.00 | 61 | 1003.4 |
| 20260504230017 | 62 | 315 | 5.2 | 7.8 | 0.00 | 0.00 | 0.00 | 61 | 1003.4 |
| 20260504224519 | 63 | 222 | 3.5 | 6.1 | 0.00 | 0.00 | 0.00 | 60 | 1003.3 |
| 20260504223018 | 63 | 315 | 3.5 | 8.7 | 0.00 | 0.00 | 0.00 | 61 | 1003.3 |
| 20260504221518 | 63 | 315 | 3.5 | 6.1 | 0.00 | 0.00 | 0.00 | 61 | 1003.3 |
| 20260504221516 | 63 | 315 | 3.5 | 6.1 | 0.00 | 0.00 | 0.00 | 61 | 1003.3 |
| 20260504213226 | 63 | 222 | 0.9 | 0.9 | 0.00 | 0.00 | 0.00 | 59 | 1003.3 |
| 20260504210222 | 63 | 270 | 2.6 | 3.5 | 0.00 | 0.00 | 0.00 | 60 | 1003.3 |
| 20260504204720 | 63 | 222 | 0.0 | 0.0 | 0.00 | 0.00 | 0.00 | 57 | 1004.3 |
| 20260504203220 | 66 | 315 | 1.7 | 4.3 | 0.00 | 0.00 | 0.00 | 51 | 1003.1 |
| 20260504201718 | 66 | 0 | 1.7 | 4.3 | 0.00 | 0.00 | 0.00 | 51 | 1003.1 |
| 20260504200218 | 66 | 270 | 3.5 | 6.1 | 0.00 | 0.00 | 0.00 | 49 | 1004.2 |
| 20260504194715 | 65 | 315 | 2.6 | 3.5 | 0.00 | 0.00 | 0.00 | 51 | 1004.2 |
| 20260504193215 | 64 | 180 | 2.6 | 5.2 | 0.00 | 0.00 | 0.00 | 55 | 1004.3 |
| 20260504191714 | 64 | 0 | 2.6 | 3.5 | 0.00 | 0.00 | 0.00 | 53 | 1003.3 |
| 20260504190214 | 63 | 315 | 1.7 | 3.5 | 0.00 | 0.00 | 0.00 | 56 | 1004.4 |
| 20260504184711 | 62 | 315 | 0.9 | 1.7 | 0.00 | 0.00 | 0.00 | 1004.4 | |
| 20260504183211 | 63 | 315 | 1.7 | 2.6 | 0.00 | 0.00 | 0.00 | 61 | 1003.3 |
| 20260504181708 | 64 | 270 | 0.9 | 1.7 | 0.00 | 0.00 | 0.00 | 62 | 1003.2 |
| 20260504180207 | 66 | 270 | 0.0 | 0.0 | 0.00 | 0.00 | 0.00 | 59 | 1003.1 |
| 20260504174707 | 69 | 270 | 0.0 | 0.0 | 0.00 | 0.00 | 0.00 | 55 | 1002.9 |
| 20260504173206 | 73 | 270 | 0.9 | 1.7 | 0.00 | 0.00 | 0.00 | 47 | 1002.6 |
| 20260504171703 | 76 | 270 | 0.9 | 0.9 | 0.00 | 0.00 | 0.00 | 40 | 1002.4 |
| 20260504170202 | 78 | 270 | 0.9 | 1.7 | 0.00 | 0.00 | 0.00 | 31 | 1002.3 |
| 20260504150151 | 77 | 222 | 1.7 | 4.3 | 0.00 | 0.00 | 0.00 | 28 | 1003.4 |